RH
82 62 52 69 56 59 63 83 80 71 74 76 79 84 89 86 85 85 82 78 78 71 62 67 70 64 69 73 74 78 91 88 80 69 62 59 61 59 75 49 67 83 46
82 63 52 85 61 63 72 81 81 85 87 93 99 86 85 86 85 79 78 68 57 46 37 32 30 31 40 46 56 70 72 80 79 82 74 78 78 76 77 78 63 43 48
86 87 57 84 67 65 79 84 84 86 87 87 86 77 60 47 42 39 33 27 19 13 11 10 11 12 12 15 18 24 30 41 60 75 84 89 92 78 75 72 79 78 76
86 83 87 92 70 66 76 81 84 79 71 61 48 39 28 20 14 11 10 10 11 12 12 12 12 13 12 12 13 13 13 14 18 33 75 88 87 85 80 76 74 75 83
85 91 90 94 70 71 86 83 80 66 47 30 21 13 9 8 9 11 11 12 11 11 11 12 12 12 11 11 11 11 12 12 13 17 41 81 66 87 78 69 71 79 88
81 92 85 92 69 79 88 86 68 48 25 16 10 9 10 11 11 10 11 12 12 12 12 12 12 11 11 11 11 11 12 19 56 65 35 46 69 61 63 62 65 68 75
85 94 95 79 81 89 87 76 57 29 15 10 10 10 11 11 10 11 12 12 13 13 12 11 10 9 8 8 8 8 12 36 76 77 78 85 79 58 66 75 73 74 78
92 98 94 81 89 92 84 64 42 17 11 10 11 11 11 11 12 12 13 13 13 12 10 9 8 7 7 6 6 6 23 73 75 79 93 84 83 72 78 78 79 79 86
98 100 87 91 94 91 76 57 24 12 10 12 12 11 12 13 13 13 14 14 12 10 9 8 7 6 6 6 7 13 42 76 77 89 90 93 85 84 88 78 81 86 87
99 99 94 94 96 90 70 45 16 11 12 12 12 12 13 14 14 15 14 12 10 9 8 8 8 7 7 10 15 28 62 69 75 83 94 98 95 100 88 90 88 89 78
99 98 100 100 98 85 67 30 14 13 14 13 13 13 14 16 16 16 14 10 9 8 9 10 11 12 18 22 28 60 70 70 73 80 70 88 77 68 57 69 84 83 79
99 100 99 100 91 82 61 18 13 14 14 16 13 15 18 18 17 16 12 10 10 12 14 15 15 22 56 70 74 73 71 71 72 71 37 48 87 82 86 84 84 86 89
100 100 97 98 91 78 44 17 14 15 16 17 15 16 17 18 17 14 11 10 13 17 19 21 25 26 34 76 76 77 76 72 72 60 27 74 98 91 98 97 93 98 98
100 98 99 98 88 71 32 20 18 19 16 15 16 17 18 19 18 13 12 14 18 22 22 24 29 30 36 73 75 76 77 75 72 74 23 41 69 73 77 88 88 74 84
97 100 98 96 88 64 23 21 16 17 14 15 16 19 19 20 17 13 14 17 19 22 26 27 43 50 56 50 64 71 75 68 54 65 25 22 23 22 24 24 34 47 38
98 88 94 99 82 52 21 21 20 19 15 15 17 20 20 20 14 13 16 18 20 22 24 27 31 40 64 72 71 65 73 66 56 46 43 28 26 25 24 23 21 19 18
99 96 96 94 75 44 22 21 21 17 16 17 19 21 21 19 14 15 18 20 22 23 24 25 26 32 39 56 75 69 56 64 52 49 42 41 34 32 31 30 30 28 26
100 98 97 86 63 40 25 22 22 17 19 20 20 21 23 18 14 16 18 21 23 24 24 24 27 31 31 36 66 60 66 52 54 53 46 46 41 43 37 36 35 35 35
99 96 91 84 75 45 26 25 21 19 22 23 22 23 24 17 16 18 20 22 23 25 26 26 27 28 33 32 32 54 54 61 58 46 66 49 45 45 45 41 41 40 40
100 100 84 85 79 46 32 24 22 21 24 23 24 25 24 18 18 21 23 24 25 27 28 28 28 28 29 29 30 32 37 45 55 65 81 65 55 45 46 48 46 43 43
100 94 92 88 69 49 35 25 23 22 24 25 24 25 24 19 19 22 25 26 27 28 29 29 29 29 29 30 32 52 46 36 42 68 78 77 83 49 45 47 46 48 44
100 97 88 79 72 47 40 32 25 25 25 25 24 26 23 20 20 24 27 27 27 28 28 27 25 26 28 30 35 38 51 50 50 60 70 75 84 83 52 44 44 45 45
99 98 87 78 70 44 38 36 28 28 27 28 26 27 25 22 23 26 28 28 28 29 27 26 25 26 35 34 33 35 53 49 50 50 48 53 68 73 68 71 49 46 46
98 100 100 85 68 49 50 30 27 27 28 29 29 30 26 23 24 26 28 28 27 28 28 27 27 27 29 36 39 37 40 45 58 54 55 56 56 53 58 72 72 66 55
98 99 95 87 77 51 49 34 31 34 46 41 35 32 30 27 27 27 29 28 27 29 30 29 28 29 29 30 37 52 55 52 55 65 64 58 61 64 67 69 72 66 64
76 87 95 100 92 68 49 49 43 36 37 34 35 35 33 31 30 30 31 30 30 31 31 29 29 30 31 32 35 41 50 69 65 66 67 64 65 66 71 71 62 72 65
Wind_Speed
19 24 21 18 16 15 14 13 11 10 9 7 7 8 8 7 5 3 3 3 2 3 3 3 4 4 4 4 4 3 4 5 6 6 6 6 7 7 8 8 8 3 4
25 26 24 20 16 16 15 13 12 10 10 11 11 7 4 3 1 2 3 4 6 6 6 6 6 7 7 7 7 6 6 5 5 5 5 7 7 6 6 6 6 6 4
25 25 25 22 18 16 16 14 13 11 9 7 5 3 4 4 4 4 4 4 4 4 4 5 5 6 6 6 7 8 8 7 6 4 5 5 6 6 6 5 4 5 6
25 24 24 23 18 16 16 13 11 9 7 5 5 4 3 3 2 2 1 1 2 3 3 4 4 4 4 5 5 6 7 7 6 5 2 2 1 9 6 6 5 6 5
24 23 25 23 18 17 14 12 10 7 5 4 3 2 1 1 1 1 2 2 2 3 4 4 4 5 5 5 5 4 5 5 4 3 3 4 2 9 8 7 6 8 6
24 26 25 21 19 18 15 11 8 5 4 3 2 2 2 3 3 2 3 3 3 4 4 5 5 5 5 4 4 4 5 8 11 5 3 2 1 5 6 7 6 6 7
26 24 24 20 20 18 14 10 7 5 4 3 3 4 4 4 3 3 3 3 4 5 5 6 6 5 5 5 4 4 6 10 11 10 10 7 4 2 4 5 6 5 5
26 24 24 21 19 16 13 9 7 5 4 4 4 4 4 4 4 4 4 5 5 5 6 6 6 6 7 6 5 5 10 15 9 10 8 7 6 3 3 4 5 5 5
25 25 23 22 18 15 12 9 7 6 5 5 4 4 4 4 4 4 5 5 5 6 6 6 7 8 9 9 9 11 14 16 9 5 5 8 3 3 4 4 4 4 3
26 24 24 22 19 17 14 10 8 7 6 6 5 5 5 4 4 4 5 5 6 7 8 9 10 10 11 11 11 14 16 14 8 7 5 6 4 5 3 2 2 6 8
26 25 24 20 18 16 14 12 9 8 7 6 6 6 5 5 4 5 5 6 7 8 9 10 11 11 11 13 14 16 14 9 8 6 4 3 2 5 7 5 5 8 9
31 29 25 20 17 17 14 12 11 10 9 8 6 6 6 4 4 5 6 7 8 9 11 11 11 12 13 7 10 11 8 8 8 7 6 7 7 5 5 5 6 5 5
34 31 25 20 19 16 15 14 12 10 9 9 7 7 6 5 5 5 6 7 9 9 10 11 10 9 9 7 7 7 8 8 7 7 6 8 8 5 4 3 1 2 3
31 29 26 21 19 17 15 13 12 11 10 9 9 7 6 5 5 5 6 7 8 8 8 9 9 9 9 8 8 7 8 7 6 5 5 2 2 2 2 2 2 7 7
31 28 25 23 19 17 16 14 13 12 11 10 9 8 7 5 5 5 6 6 7 7 7 8 8 7 7 7 7 6 6 6 6 5 7 6 4 5 6 6 7 7 9
35 31 25 23 20 18 17 15 14 13 11 11 9 9 7 6 5 5 6 6 6 7 7 7 6 6 6 5 5 5 5 5 5 5 6 6 6 7 7 8 8 7 8
31 28 25 24 21 18 16 15 14 13 12 11 10 9 7 5 5 5 5 5 5 5 5 5 6 6 5 4 3 3 3 2 3 4 4 5 7 7 8 8 9 9 9
32 31 27 24 20 18 16 15 14 13 12 11 10 8 7 5 5 5 5 4 3 3 4 5 5 5 5 3 2 4 3 3 3 3 4 5 6 8 8 9 9 10 10
34 32 29 25 20 17 16 15 15 14 12 11 9 8 7 6 5 5 4 4 3 2 3 3 3 4 5 6 5 4 4 5 6 5 4 6 6 8 9 8 9 10 10
34 32 29 25 21 18 18 18 16 14 13 11 10 9 7 6 5 5 4 3 2 2 2 3 4 5 5 6 6 6 7 7 7 6 6 8 9 10 9 9 11 12 11
34 31 30 26 24 22 19 18 17 16 15 12 11 10 8 7 7 6 4 3 2 1 2 3 5 6 7 7 7 8 12 8 8 7 8 8 11 11 10 10 12 13 14
31 31 28 26 24 22 17 17 16 15 14 12 12 11 9 8 8 7 5 4 3 2 2 4 5 7 8 7 4 7 3 8 9 7 8 9 8 11 11 13 13 13 14
30 31 28 25 24 21 18 19 17 17 15 15 14 13 11 10 9 8 7 6 5 4 4 6 6 6 6 9 6 3 3 3 8 8 12 9 10 10 12 14 14 15 16
27 28 27 24 22 20 19 18 18 16 16 15 14 13 12 12 11 10 9 8 7 6 6 8 8 8 8 6 10 7 7 10 3 6 9 13 14 13 13 13 15 16 18
25 25 26 25 24 21 19 17 18 16 13 14 14 14 14 13 13 12 11 10 9 8 7 9 10 10 10 9 9 9 8 9 8 9 12 7 11 14 14 15 15 16 17
19 20 17 23 24 24 22 19 18 19 18 16 15 15 15 15 14 13 12 12 10 9 10 9 10 11 11 11 10 10 9 7 7 9 11 14 14 16 12 18 16 16 15
Wind_Direction
164 171 163 161 155 149 142 130 122 113 111 110 111 108 121 125 121 111 81 72 38 347 335 337 346 342 324 334 339 13 17 6 2 16 26 29 29 33 30 38 65 9 40
158 165 160 164 159 152 141 137 137 137 136 139 144 143 128 130 172 263 284 299 298 300 305 304 299 294 293 296 298 299 305 324 337 359 12 20 4 19 15 25 27 30 31
156 161 162 166 161 155 148 154 157 158 159 165 175 201 243 261 265 276 287 299 305 309 312 310 306 303 299 291 287 286 286 282 290 327 28 47 319 327 343 344 351 2 13
155 161 163 168 163 158 159 166 166 165 174 199 210 218 232 245 255 274 293 326 336 345 343 342 336 335 330 324 314 309 306 301 296 282 48 326 342 306 309 328 341 321 331
157 153 168 169 163 158 166 175 169 178 189 193 197 201 191 154 94 83 62 52 38 23 9 3 360 351 352 349 348 348 353 356 344 312 265 274 222 291 298 298 308 321 299
156 171 167 165 162 167 174 169 169 177 176 173 161 130 110 96 88 71 61 46 28 30 23 4 2 9 2 354 358 10 31 47 41 21 22 1 352 285 293 303 304 307 316
172 176 163 168 167 175 169 169 171 167 166 152 134 119 110 101 91 78 65 44 31 20 25 14 4 15 12 4 7 23 68 83 68 56 55 65 39 302 333 342 346 336 325
168 165 165 168 172 174 165 169 169 166 161 146 128 117 104 90 79 66 54 39 29 24 22 22 17 23 31 28 32 63 92 80 69 71 92 71 63 38 29 8 3 355 354
162 161 164 171 178 169 169 171 171 166 155 140 126 109 96 82 70 63 52 42 35 28 35 41 45 43 51 55 65 81 99 95 80 72 107 86 87 52 50 21 11 0 332
165 167 169 175 179 176 173 171 172 161 155 144 133 123 110 100 83 70 63 53 46 47 51 55 55 53 60 64 73 86 76 67 66 58 37 103 79 48 60 47 350 340 335
167 170 173 170 167 172 177 169 170 162 158 151 136 126 117 96 83 70 61 58 60 62 60 58 57 63 67 62 70 74 67 69 63 51 55 110 351 321 317 307 328 325 334
161 165 167 157 158 169 172 169 172 167 161 145 145 126 123 113 90 75 67 66 67 67 65 61 59 62 58 46 32 52 66 63 58 49 78 92 73 50 53 52 55 34 14
179 182 173 168 166 172 170 169 170 168 165 157 153 146 136 124 106 83 77 75 74 65 62 61 58 70 79 75 68 62 62 68 58 16 76 130 128 124 79 73 68 46 336
188 187 185 179 179 180 175 169 172 170 170 168 163 152 139 129 108 95 91 90 83 79 69 73 66 64 66 78 80 68 61 65 62 33 59 114 222 311 306 338 307 270 296
190 186 190 189 186 186 180 174 177 178 175 172 172 157 148 138 123 113 106 99 94 87 82 72 74 64 64 69 74 71 65 51 54 58 42 39 17 4 356 347 331 324 321
191 188 190 194 190 189 186 179 179 176 177 178 175 165 155 147 136 127 114 105 98 95 88 81 75 71 67 70 66 62 56 41 39 48 14 35 32 30 27 25 20 10 358
189 191 194 196 191 189 190 189 185 181 179 181 178 168 159 154 146 139 128 116 106 100 92 79 67 63 56 68 57 49 52 24 25 17 22 359 6 15 16 17 15 11 6
191 191 198 196 192 188 193 193 189 186 183 183 181 173 165 161 157 146 138 126 120 101 81 69 59 43 37 42 24 331 343 342 331 325 337 341 354 344 357 358 2 2 360
194 192 191 196 194 196 193 196 194 191 188 189 183 180 175 173 167 162 156 150 142 98 67 54 39 30 15 360 353 311 308 298 298 300 296 312 323 328 325 339 345 347 349
195 190 194 193 193 195 194 198 198 192 192 193 190 190 186 184 180 182 178 170 141 86 38 16 6 2 350 341 333 310 302 299 281 283 277 292 295 313 310 320 329 334 335
199 192 192 194 192 197 195 198 199 197 199 197 198 197 196 197 197 199 198 189 180 179 341 353 348 341 338 342 347 331 321 308 289 274 275 277 289 302 301 309 315 319 322
206 196 194 195 198 200 197 199 201 201 203 205 207 202 205 208 210 210 212 212 217 240 292 315 332 332 329 335 321 336 341 297 320 283 271 274 268 283 299 303 308 310 311
204 200 200 198 201 201 198 203 200 203 205 208 208 208 211 215 216 217 221 227 235 260 285 307 320 324 306 316 319 305 326 315 311 262 301 293 285 281 298 296 300 302 304
201 206 208 203 201 204 204 210 211 214 214 216 217 215 218 222 222 225 230 236 246 261 285 299 306 304 303 302 309 306 270 268 306 312 293 311 311 293 283 278 290 298 304
198 207 211 210 205 204 212 212 216 211 213 218 218 220 224 226 227 228 232 240 244 257 275 291 300 301 301 296 289 278 298 288 275 259 285 295 299 315 306 298 292 288 294
200 205 230 219 218 209 213 212 222 222 220 224 224 226 230 230 230 233 236 242 243 258 272 284 293 296 295 293 283 279 274 256 260 272 276 285 285 291 283 290 291 287 288